This is the latest recevied weather packets stored in our database for station/object KF5JED-13. If no packets are shown the sender has not sent any weather packets the latest 10 day(s).
| Time | Temp. | Humidity | Pressure | Rain* | Wind** | Luminosity | Snow |
|---|---|---|---|---|---|---|---|
| 1777617010 | 11.67° C | 70% | 1018.2 hPa | 0 mm | - | 0 W/m² | - |
| 1777616705 | 11.67° C | 70% | 1017.7 hPa | 0 mm | - | 0 W/m² | - |
| 1777616405 | 12.22° C | 70% | 1017.7 hPa | 0 mm | - | 0 W/m² | - |
| 1777616102 | 12.22° C | 70% | 1017.8 hPa | 0 mm | - | 0 W/m² | - |
| 1777615799 | 11.67° C | 72% | 1017.8 hPa | 0 mm | - | 0 W/m² | - |
| 1777615496 | 11.67° C | 73% | 1017.8 hPa | 0 mm | - | 0 W/m² | - |
| 1777615191 | 11.67° C | 75% | 1017.9 hPa | 0 mm | - | 0 W/m² | - |
| 1777614886 | 11.67° C | 76% | 1018.1 hPa | 0 mm | - | 0 W/m² | - |
| 1777614583 | 11.67° C | 79% | 1018 hPa | 0 mm | - | 0 W/m² | - |
| 1777614278 | 11.67° C | 80% | 1017.9 hPa | 0 mm | - | 0 W/m² | - |
| 1777613973 | 11.67° C | 80% | 1017.8 hPa | 0 mm | - | 0 W/m² | - |
| 1777613670 | 11.67° C | 80% | 1017.7 hPa | 0 mm | - | 0 W/m² | - |
| 1777613367 | 11.67° C | 80% | 1017.8 hPa | 0 mm | - | 0 W/m² | - |
| 1777613064 | 11.11° C | 81% | 1017.9 hPa | 0 mm | - | 0 W/m² | - |
| 1777612760 | 11.11° C | 82% | 1018 hPa | 0 mm | - | 0 W/m² | - |
| 1777612455 | 11.11° C | 82% | 1017.8 hPa | 0 mm | - | 0 W/m² | - |
| 1777612151 | 11.11° C | 82% | 1017.8 hPa | 0 mm | - | 0 W/m² | - |
| 1777611846 | 11.11° C | 82% | 1017.9 hPa | 0 mm | - | 0 W/m² | - |
| 1777611543 | 11.11° C | 82% | 1017.9 hPa | 0 mm | - | 0 W/m² | - |
| 1777611240 | 11.11° C | 82% | 1017.8 hPa | 0 mm | - | 0 W/m² | - |
| 1777610936 | 11.11° C | 82% | 1017.9 hPa | 0 mm | - | 0 W/m² | - |
| 1777610631 | 11.67° C | 81% | 1018 hPa | 0 mm | - | 0 W/m² | - |
| 1777610330 | 11.67° C | 81% | 1017.9 hPa | 0 mm | - | 0 W/m² | - |
| 1777610027 | 11.67° C | 79% | 1017.9 hPa | 0 mm | - | 0 W/m² | - |
| 1777609723 | 11.67° C | 79% | 1017.9 hPa | 0 mm | - | 0 W/m² | - |
* Rain latest hour (hover to see other rain measurements)
** Current wind speed in m/s (hover to see current wind gust speed)